This is the latest recevied weather packets stored in our database for station/object DL7AND-1. If no packets are shown the sender has not sent any weather packets the latest 10 day(s).
| Time | Temp. | Humidity | Pressure | Rain* | Wind** | Luminosity | Snow |
|---|---|---|---|---|---|---|---|
| 1777834613 | 25.56° C | - | 1000 hPa | 0 mm | - | - | - |
| 1777830369 | 26.67° C | - | 999.7 hPa | 0 mm | - | - | - |
| 1777829168 | 26.67° C | - | 999.8 hPa | 0 mm | - | - | - |
| 1777827413 | 27.22° C | - | 999.7 hPa | 0 mm | - | - | - |
| 1777814213 | 28.33° C | - | 1001.2 hPa | 0 mm | - | - | - |
| 1777812993 | 28.33° C | - | 1001.5 hPa | 0 mm | - | - | - |
| 1777811793 | 28.33° C | - | 1001.7 hPa | 0 mm | - | - | - |
| 1777808769 | 27.78° C | - | 1002 hPa | 0 mm | - | - | - |
| 1777803969 | 27.78° C | - | 1002.6 hPa | 0 mm | - | - | - |
| 1777799168 | 25.56° C | - | 1003.3 hPa | 0 mm | - | - | - |
| 1777796769 | 23.89° C | - | 1003.3 hPa | 0 mm | - | - | - |
| 1777791968 | 21.67° C | - | 1003.6 hPa | 0 mm | - | - | - |
| 1777789569 | 22.22° C | - | 1003.6 hPa | 0 mm | - | - | - |
| 1777787792 | 24.44° C | - | 1003.5 hPa | 0 mm | - | - | - |
| 1777787169 | 24.44° C | - | 1003.7 hPa | 0 mm | - | - | - |
| 1777785393 | 23.89° C | - | 1003.6 hPa | 0 mm | - | - | - |
| 1777781793 | 16.67° C | - | 1003.6 hPa | 0 mm | - | - | - |
| 1777779968 | 17.22° C | - | 1003.7 hPa | 0 mm | - | - | - |
| 1777777569 | 17.22° C | - | 1003.5 hPa | 0 mm | - | - | - |
| 1777775793 | 17.78° C | - | 1003.8 hPa | 0 mm | - | - | - |
| 1777771589 | 18.33° C | - | 1004.2 hPa | 0 mm | - | - | - |
| 1777770369 | 18.33° C | - | 1004.3 hPa | 0 mm | - | - | - |
| 1777762593 | 20° C | - | 1005.3 hPa | 0 mm | - | - | - |
| 1777761969 | 20° C | - | 1005.4 hPa | 0 mm | - | - | - |
| 1777758369 | 20.56° C | - | 1005.6 hPa | 0 mm | - | - | - |
* Rain latest hour (hover to see other rain measurements)
** Current wind speed in m/s (hover to see current wind gust speed)